{"data":{"norad_id":55811,"intl_designator":"2023-029R","name":"ONEWEB-0648","alt_names":[],"object_type":"PAYLOAD","status":"ACTIVE","operator":null,"country":"UK","launch_date":"2023-03-09","launch_site_code":"AFETR","launch_vehicle":null,"mission":null,"orbit_class":"UNKNOWN","rcs_meters":null,"size_class":null,"mass_kg":null,"dimensions":null,"purposes":["comms"],"wikipedia_slug":null,"has_3d_model":false,"image_url":null,"decayed_at":null,"tle_current":{"epoch":"2026-05-25T02:59:43.977120Z","epoch_age_seconds":71140,"freshness":"FRESH","line1":"1 55811U 23029R   26145.12481455 -.00000089  00000+0 -27517-3 0  9997","line2":"2 55811  87.8943 294.3023 0001272  67.8136 292.3129 13.14504666156362","mean_motion":13.14504666,"eccentricity":0.0001272,"inclination_deg":87.8943,"raan_deg":294.3023,"arg_perigee_deg":67.8136,"mean_anomaly_deg":292.3129,"bstar":-0.00027517,"rev_number":15636,"period_min":109.54696755713,"perigee_km":1204.8185028392,"apogee_km":1206.7478521324,"semimajor_km":7583.9201774858,"source":"CELESTRAK","updated_at":"2026-05-25T13:38:22.693369Z"}}}